Simultaneous Nadir Overpasses (SNOs) Predictions

Prediction of SNOs between LANDSAT-8 and METOP-B Satellite Orbit:

Table of predicted SNOs for the next 14.0 days since TLE Epoch: 9/17/2022
Index Date (LANDSAT-8) Time (LANDSAT-8) Lat,Lon (LANDSAT-8) SZA (LANDSAT-8 ) Date (METOP-B) Time (METOP-B) Lat,Lon (METOP-B) SZA (METOP-B ) Distance(km) Time Diff (sec)
1 09/19/2022 01:45:59 -81.10, 13.17 98.26 09/19/2022 01:44:49 -81.10, 13.12 98.30 0.95 70
2 09/19/2022 02:35:24 81.13,-178.73 81.83 09/19/2022 02:35:28 81.12,-178.87 81.81 2.61 4
3 09/21/2022 21:20:15 -81.09, 79.47 97.17 09/21/2022 21:19:15 -81.09, 79.31 97.21 2.61 60
4 09/21/2022 22:09:40 81.12,-112.47 82.91 09/21/2022 22:09:53 81.12,-112.34 82.94 2.37 13
5 09/24/2022 16:54:29 -81.10, 146.02 96.04 09/24/2022 16:53:39 -81.09, 145.84 96.08 3.09 50
6 09/24/2022 17:43:54 81.12, -45.94 84.04 09/24/2022 17:44:17 81.13, -45.85 84.07 1.69 23
7 09/27/2022 12:28:44 -81.10,-147.53 94.92 09/27/2022 12:28:04 -81.10,-147.68 94.95 2.54 40
8 09/27/2022 13:18:09 81.12, 20.48 85.15 09/27/2022 13:18:42 81.13, 20.60 85.19 2.13 33
9 09/30/2022 08:02:58 -81.11, -80.82 93.77 09/30/2022 08:02:28 -81.11, -80.86 93.79 0.91 30



Historial Predications of SNOs between LANDSAT-8 and METOP-B
